Weather History for Myrtle Beach, SC

Change the Weather History Date:

Sunday, February 17, 2013

  Actual Average Record
Temperature  
Mean Temperature 32 °F -  
Max Temperature 39 °F 57 °F 76 °F (1990)
Min Temperature 26 °F 38 °F 19 °F (1991)
Degree Days  
Heating Degree Days 32    
Moisture  
Dew Point 24 °F    
Average Humidity 75    
Maximum Humidity 93    
Minimum Humidity 39    
Precipitation  
Precipitation 0.16 in - - ()
Sea Level Pressure  
Sea Level Pressure 30.12 in    
Wind  
Wind Speed 10 mph (WNW)    
Max Wind Speed 21 mph    
Max Gust Speed 29 mph    
Visibility 10 miles    
Events      
Averages and records for this station are not official NWS values.
T = Trace of Precipitation, MM = Missing Value Source: NWS Daily Summary

Daily Weather History Graph

Daily Weather History Graph

Search for Another Location

Airport:

Trip Planner

Search our weather history database for the weather conditions in past years. The results will help you decide how hot, cold, wet, or windy it might be!

Date:

Astronomy

Feb. 17, 2013 Rise Set
Actual Time 6:57 AM EST 6:02 PM EST
Civil Twilight 6:32 AM EST 6:27 PM EST
Nautical Twilight 6:03 AM EST 6:56 PM EST
Astronomical Twilight 5:34 AM EST 7:25 PM EST
Moon 11:12 AM EST (2/17) 12:34 AM EST (2/17)
Length of Visible Light 11h 55m
Length of Day
11h 04m
Waxing Crescent, 49% of the Moon is Illuminated
Feb 17
Waxing Crescent
Feb 17
First Quarter
Feb 25
Full
Mar 4
Last Quarter
Mar 11
New

Hourly Weather History & Observations

Time (EST) Temp. Windchill Dew Point Humidity Pressure Visibility Wind Dir Wind Speed Gust Speed Precip Events Conditions
12:15 AM 33.8 °F 25.8 °F 30.2 °F 87% 29.97 in 10.0 mi NW 10.4 mph 17.3 mph N/A   Mostly Cloudy
12:35 AM 33.8 °F 25.3 °F 28.4 °F 81% 29.97 in 10.0 mi NW 11.5 mph 16.1 mph N/A   Clear
12:55 AM 33.8 °F 25.8 °F 28.4 °F 81% 29.98 in 10.0 mi WNW 10.4 mph - N/A   Clear
1:15 AM 33.8 °F 25.3 °F 28.4 °F 81% 29.99 in 10.0 mi West 11.5 mph - N/A   Clear
1:35 AM 33.8 °F 25.8 °F 28.4 °F 81% 30.00 in 10.0 mi West 10.4 mph - N/A   Clear
1:55 AM 32.0 °F 23.0 °F 28.4 °F 87% 30.00 in 10.0 mi West 11.5 mph - N/A   Clear
2:15 AM 32.0 °F 23.0 °F 28.4 °F 87% 30.01 in 10.0 mi West 11.5 mph 18.4 mph N/A   Clear
2:35 AM 32.0 °F 23.6 °F 28.4 °F 87% 30.01 in 10.0 mi WNW 10.4 mph - N/A   Clear
2:55 AM 32.0 °F 22.5 °F 28.4 °F 87% 30.01 in 10.0 mi West 12.7 mph - N/A   Partly Cloudy
3:15 AM 30.2 °F 21.3 °F 28.4 °F 93% 30.02 in 10.0 mi WNW 10.4 mph - N/A   Clear
3:35 AM 30.2 °F 21.3 °F 28.4 °F 93% 30.03 in 10.0 mi WNW 10.4 mph - N/A   Clear
3:55 AM 30.2 °F 21.9 °F 26.6 °F 86% 30.04 in 10.0 mi West 9.2 mph - N/A   Clear
4:15 AM 30.2 °F 22.6 °F 26.6 °F 86% 30.04 in 10.0 mi WNW 8.1 mph - N/A   Clear
4:35 AM 30.2 °F 20.8 °F 26.6 °F 86% 30.05 in 10.0 mi West 11.5 mph - N/A   Clear
4:55 AM 30.2 °F 20.8 °F 26.6 °F 86% 30.06 in 10.0 mi WNW 11.5 mph - N/A   Clear
5:15 AM 28.4 °F 19.1 °F 24.8 °F 86% 30.07 in 10.0 mi WNW 10.4 mph - N/A   Clear
5:35 AM 28.4 °F 20.4 °F 24.8 °F 86% 30.08 in 10.0 mi WNW 8.1 mph - N/A   Clear
5:50 AM 28.4 °F 19.1 °F 24.8 °F 86% 30.08 in 10.0 mi NW 10.4 mph - N/A   Clear
6:45 AM 28.4 °F 19.7 °F 24.8 °F 86% 30.10 in 10.0 mi WNW 9.2 mph - N/A   Clear
7:45 AM 28.4 °F 18.5 °F 24.8 °F 86% 30.13 in 10.0 mi WNW 11.5 mph - N/A   Clear
8:45 AM 30.2 °F 18.9 °F 23.0 °F 75% 30.17 in 10.0 mi NW 16.1 mph - N/A   Clear
9:45 AM 32.0 °F 23.0 °F 23.0 °F 69% 30.18 in 10.0 mi NW 11.5 mph - N/A   Clear
10:45 AM 33.8 °F 25.3 °F 21.2 °F 60% 30.19 in 10.0 mi NW 11.5 mph - N/A   Clear
11:45 AM 35.6 °F 27.5 °F 21.2 °F 56% 30.19 in 10.0 mi NW 11.5 mph - N/A   Clear
12:45 PM 37.4 °F 27.8 °F 19.4 °F 48% 30.18 in 10.0 mi NW 17.3 mph 25.3 mph N/A   Partly Cloudy
1:48 PM 39.2 °F 29.3 °F 15.8 °F 39% 30.18 in 10.0 mi NW 20.7 mph 28.8 mph N/A   Scattered Clouds
2:45 PM 39.2 °F 30.5 °F 17.6 °F 42% - 10.0 mi NNW 16.1 mph 24.2 mph N/A   Scattered Clouds
3:45 PM 39.2 °F 30.2 °F 15.8 °F 39% 30.18 in 10.0 mi NW 17.3 mph 24.2 mph N/A   Partly Cloudy
4:45 PM 39.2 °F 32.0 °F 15.8 °F 39% 30.19 in 10.0 mi NW 11.5 mph 24.2 mph N/A   Partly Cloudy
5:48 PM 39.2 °F 32.0 °F 15.8 °F 39% 30.21 in 10.0 mi NW 11.5 mph 23.0 mph N/A   Clear
7:45 PM 30.2 °F 26.7 °F 21.2 °F 69% 30.26 in 10.0 mi West 3.5 mph - N/A   Clear
8:45 PM 30.2 °F 25.4 °F 23.0 °F 75% 30.28 in 10.0 mi WSW 4.6 mph - N/A   Clear
9:47 PM 28.4 °F 22.2 °F 23.0 °F 80% 30.29 in 10.0 mi SW 5.8 mph - N/A   Clear
10:55 PM 28.4 °F - 24.8 °F 86% 30.30 in 10.0 mi Calm Calm - N/A   Clear
11:15 PM 26.6 °F - 23.0 °F 86% 30.30 in 10.0 mi Calm Calm - N/A   Clear
11:35 PM 28.4 °F - 21.2 °F 74% 30.30 in 10.0 mi Calm Calm - N/A   Clear
11:55 PM 26.6 °F - 19.4 °F 74% 30.31 in 10.0 mi Calm Calm - N/A   Clear